Regional Weather Roundup
Issued by NWS

Home | Current Version | Previous Version | Text Only | Print | Product List | Glossary On
Versions: 1 2 3 4 5 6 7 8 9 10 11 12 13 14 15 16 17 18 19 20 21 22 23 24 25 26 27 28 29 30 31 32 33 34 35 36 37 38 39 40 41 42 43 44 45 46 47 48 49 50
147
ASUS43 KMPX 280501
RWRMN
WEATHER ROUNDUP FOR MINNESOTA
NATIONAL WEATHER SERVICE TWIN CITIES/CHANHASSEN MN
1200 AM CDT FRI JUL 28 2017


NOTE: "FAIR" INDICATES FEW OR NO CLOUDS BELOW 12,000 FEET WITH NO
SIGNIFICANT WEATHER AND/OR OBSTRUCTIONS TO VISIBILITY. N/A MEANS
CURRENT SKY AND/OR WEATHER CONDITIONS ARE NOT AVAILABLE.

MNZ060>063-068>070-280600-
   Twin Cities Metro

CITY           SKY/WX    TMP DP  RH WIND       PRES   REMARKS
TWIN CITIES    PTCLDY    74  60  61 NE3       30.05R
ST PAUL        CLEAR     69  62  78 CALM      30.04S
CRYSTAL        CLEAR     68  58  70 CALM      30.04R
BLAINE         CLEAR     70  61  73 CALM      30.05S
LAKEVILLE      CLEAR     63  63 100 CALM      30.05S
EDEN PRAIRIE   CLEAR     72  62  71 N5        30.04R
SOUTH ST PAUL  CLEAR     73  59  63 CALM      30.04S
LAKE ELMO      FAIR      68  61  77 NE3       30.06S
$$
MNZ001>005-007-008-013>017-022>024-027-028-280600-
   Northwest Minnesota

CITY           SKY/WX    TMP DP  RH WIND       PRES   REMARKS
BEMIDJI        CLEAR     59  55  86 CALM      30.09S
HALLOCK        CLEAR     63  61  94 CALM      30.05S
ROSEAU         CLEAR     63  57  82 CALM      30.07S
WARROAD        CLEAR     63  57  82 CALM      30.08S
CROOKSTON      CLEAR     66  61  82 CALM      30.07S
FOSSTON        CLEAR     61  55  82 CALM      30.09S
DETROIT LAKES  CLEAR     66  61  82 CALM      30.10S
MOORHEAD       CLEAR     64  59  82 CALM      30.07S
PARK RAPIDS    CLEAR     63  58  83 CALM      30.09S
MAHNOMEN       FAIR      64  60  89 CALM      30.08S
$$
MNZ006-009>011-018-025>026-280600-
   North Central Minnesota

CITY           SKY/WX    TMP DP  RH WIND       PRES   REMARKS
BAUDETTE       CLEAR     60  59  96 CALM      30.08R
FLAG ISLAND    CLEAR     72  63  73 CALM      30.06R
INTL FALLS     CLEAR     57  54  89 CALM      30.08R
WASKISH        CLEAR     59  57  94 CALM      30.08S FOG
BIG FORK       CLEAR     57  57 100 CALM      30.09S
LONGVILLE        N/A     61  59  94 CALM      30.08S FOG
GRAND RAPIDS   CLEAR     63  59  87 CALM      30.11S
CRANE LAKE     CLEAR     54  54 100 CALM      30.10R
ORR            CLEAR     63  55  77 CALM      30.08R
COOK             N/A     61  57  88 CALM      30.10R
WALKER         FAIR      59  57  94 CALM      30.09S
$$
MNZ012-019>021-037-280600-
   Northeast Minnesota

CITY           SKY/WX    TMP DP  RH WIND       PRES   REMARKS
DULUTH         PTCLDY    57  56  96 CALM      30.09R
ELY            CLEAR     57  55  94 SE3       30.09S
HIBBING        CLEAR     54  54 100 CALM      30.09S
EVELETH        CLEAR     58  54  87 CALM      30.11R
DULUTH HARBOR  CLEAR     63  61  94 NE10      30.09R
TWO HARBORS    CLEAR     59  54  82 CALM      30.08S
SILVER BAY     CLEAR     55  54  94 CALM      30.08S
GRAND MARAIS     N/A     58  55  90 NW3       30.08R
G MARAIS ARPRT PTCLDY    54  50  87 CALM      30.13R
$$
MNZ029>031-032-039>041-046>048-054>057-064-280600-
   West Central Minnesota

CITY           SKY/WX    TMP DP  RH WIND       PRES   REMARKS
FERGUS FALLS   CLEAR     68  63  83 CALM      30.07R
WHEATON        MOCLDY    64  59  82 CALM      30.08S
MORRIS         PTCLDY    66  63  88 CALM      30.06S
ALEXANDRIA     CLEAR     68  64  87 NW3       30.09S
ELBOW LAKE     FAIR      69  65  86 CALM      30.08R
WADENA         CLEAR     63  57  82 CALM      30.08S
GLENWOOD       CLEAR     66  63  88 N6        30.08S
APPLETON       CLEAR     66  61  82 CALM      30.06S
BENSON         CLEAR     63  61  94 CALM      30.08R
ORTONVILLE     CLEAR     68  63  83 CALM        N/A
MADISON        CLEAR     68  63  83 NE3       30.07R
WILLMAR        FAIR      68  63  83 CALM      30.08S
$$
MNZ033>034-036-042>043-049>051-058-059-280600-
   Central Minnesota

CITY           SKY/WX    TMP DP  RH WIND       PRES   REMARKS
ST CLOUD       PTCLDY    63  63 100 CALM      30.06S
SAUK CENTRE    FAIR      64  62  93 CALM      30.07F
PAYNESVILLE    PTCLDY    63  60  91 CALM      30.07S
AITKIN         CLEAR     61  57  88 CALM      30.07F
PINE RIVER     CLEAR     61  57  88 CALM      30.11S
BRAINERD       CLEAR     61  60  97 CALM      30.07S
STAPLES        CLEAR     63  59  88 CALM      30.08S
LONG PRAIRIE   FAIR      64  61  88 CALM      30.08S
LITTLE FALLS   CLEAR     61  59  94 CALM      30.07S FOG
LITCHFIELD     CLEAR     72  63  73 CALM      30.07S
BUFFALO        CLEAR     64  59  83 CALM      30.06S
MAPLE LAKE     CLEAR     64  62  94 CALM      30.07S
HUTCHINSON     CLEAR     67  63  86 NE3       30.07S
$$
MNZ037-044-045-052-053-280600-
   East Central Minnesota

CITY           SKY/WX    TMP DP  RH WIND       PRES   REMARKS
PRINCETON      CLEAR     63  63 100 CALM      30.06S
MORA           CLEAR     64  57  77 CALM      30.09R
CAMBRIDGE      PTCLDY    66  59  77 CALM      30.05R
RUSH CITY      CLEAR     65  59  79 CALM      30.06S
MOOSE LAKE     CLEAR     57  55  94 CALM      30.06S
HINCKLEY       FAIR      63  63 100 CALM      30.07S
CLOQUET        CLEAR     61  55  82 E3        30.09R
MCGREGOR       CLEAR     63  55  77 CALM      30.09S
$$
MNZ071>073-080-081-089-090-097-098-280600-
   Southwest Minnesota

CITY           SKY/WX    TMP DP  RH WIND       PRES   REMARKS
MONTEVIDEO     CLEAR     64  57  77 CALM      30.07R
CANBY          PTCLDY    65  63  93 CALM      30.08R
MARSHALL       CLEAR     66  63  90 W3        30.07R
REDWOOD FALLS  CLEAR     70  63  78 N5        30.05S
OLIVIA         CLEAR     68  63  83 CALM      30.05S
PIPESTONE      CLEAR     68  61  77 CALM      30.08S
WINDOM         CLEAR     64  61  88 CALM      30.07S
WORTHINGTON    CLEAR     63  60  90 CALM      30.08S
JACKSON        CLEAR     63  59  88 CALM      30.07S
TRACY          CLEAR     68  64  87 CALM      30.08R
SLAYTON        HVY RAIN  64  60  85 CALM      30.09S
$$
MNZ065>067-074>077-082>085-091>093-280600-
   South Central Minnesota

CITY           SKY/WX    TMP DP  RH WIND       PRES   REMARKS
MANKATO        CLEAR     69  63  81 NE3       30.04F
NEW ULM        CLEAR     70  61  73 CALM      30.05S
ST JAMES       CLEAR     64  63  94 CALM      30.06S
FAIRMONT       CLEAR     66  63  90 N3        30.05S
GLENCOE        CLEAR     69  65  88 CALM      30.05S
FARIBAULT      CLEAR     64  64 100 CALM      30.05S
OWATONNA       CLEAR     63  61  94 CALM      30.05S
WASECA         CLEAR     63  61  94 CALM      30.06S
ALBERT LEA     CLEAR     66  64  94 CALM      30.05S
$$
MNZ078>079-086>088-094>096-280600-
   Southeast Minnesota

CITY           SKY/WX    TMP DP  RH WIND       PRES   REMARKS
ROCHESTER      CLEAR     64  62  93 N6        30.05S
RED WING       CLEAR     72  59  64 NE5       30.03R
STANTON        CLEAR     65  63  93 CALM      30.03S
DODGE CENTER   CLEAR     66  61  82 N3        30.06S
WINONA         PTCLDY    70  66  88 NW3       30.02S
AUSTIN         CLEAR     64  63  94 CALM      30.05R
PRESTON        CLEAR     66  60  82 N5        30.05S
$$
ABBREVIATIONS USED IN REMARKS
   TC - TEMPERATURES IN CELSIUS
  WCI - WIND CHILL INDEX
   HX - HEAT INDEX
  VSB - VISIBILITY
$$




USA.gov is the U.S. government's official web portal to all federal, state and local government web resources and services.